GW4853 Weather Reports


Display with metric or nautical units.
time (UTC)temp
F
wind
direction
speed
MPH
gust
MPH
rain 1hr
in
rain 24hr
in
rain mn
in
humidity
%
barometer
mb
20260507124912 53 36 1.0 1.0 0.00 0.00 0.00 84 1013.7
20260507124408 52 36 1.0 1.0 0.00 0.00 0.00 87 1013.8
20260507123906 51 36 1.0 1.0 0.00 0.00 0.00 90 1013.9
20260507123403 50 36 1.0 1.0 0.00 0.00 0.00 92 1013.8
20260507122900 49 36 1.0 1.0 0.00 0.00 0.00 95 1013.9
20260507122355 49 36 1.0 1.0 0.00 0.00 0.00 98 1014.0
20260507121851 49 36 0.0 0.0 0.00 0.00 0.00 99 1013.9
20260507121347 48 36 0.0 1.0 0.00 0.00 0.00 99 1013.7
20260507120844 47 34 1.0 1.0 0.00 0.00 0.00 99 1013.8
20260507120340 47 34 0.0 0.0 0.00 0.00 0.00 99 1013.8
20260507115836 46 33 0.0 0.0 0.00 0.00 0.00 99 1013.6
20260507115332 45 36 0.0 0.0 0.00 0.00 0.00 99 1013.6
20260507114828 44 36 0.0 0.0 0.00 0.00 0.00 99 1013.4
20260507114325 44 36 0.0 0.0 0.00 0.00 0.00 99 1013.5
20260507113823 43 36 0.0 0.0 0.00 0.00 0.00 99 1013.6
20260507113319 43 36 0.0 0.0 0.00 0.00 0.00 99 1013.6
20260507112817 42 36 0.0 0.0 0.00 0.00 0.00 99 1013.6
20260507112314 42 36 0.0 0.0 0.00 0.00 0.00 99 1013.4
20260507111812 42 36 0.0 0.0 0.00 0.00 0.00 99 1013.3
20260507111308 42 36 0.0 0.0 0.00 0.00 0.00 98 1013.3
20260507110804 42 36 0.0 0.0 0.00 0.00 0.00 98 1013.1
20260507110301 42 36 0.0 0.0 0.00 0.00 0.00 98 1013.1
20260507105758 42 36 0.0 0.0 0.00 0.00 0.00 98 1013.0
20260507105254 42 36 0.0 0.0 0.00 0.00 0.00 98 1013.2
20260507104751 42 36 0.0 0.0 0.00 0.00 0.00 98 1012.9
20260507104248 42 36 0.0 0.0 0.00 0.00 0.00 98 1012.9
20260507103744 42 36 0.0 0.0 0.00 0.00 0.00 98 1012.9
20260507103240 42 36 0.0 0.0 0.00 0.00 0.00 98 1012.9
20260507102737 43 36 0.0 0.0 0.00 0.00 0.00 98 1012.7
20260507102233 44 36 0.0 0.0 0.00 0.00 0.00 98 1012.5
20260507101729 44 36 0.0 0.0 0.00 0.00 0.00 98 1012.8
20260507101225 44 36 0.0 0.0 0.00 0.00 0.00 98 1012.6
20260507100722 44 36 0.0 0.0 0.00 0.00 0.00 98 1012.6
20260507100221 44 36 0.0 0.0 0.00 0.00 0.00 98 1012.8
20260507095718 44 36 0.0 1.0 0.00 0.00 0.00 97 1012.8
20260507095214 44 36 0.0 1.0 0.00 0.00 0.00 97 1012.7
20260507094711 44 36 0.0 0.0 0.00 0.00 0.00 97 1012.7
20260507094208 44 36 0.0 1.0 0.00 0.00 0.00 97 1012.6
20260507093705 44 36 0.0 0.0 0.00 0.00 0.00 97 1012.7
20260507093204 44 36 0.0 0.0 0.00 0.00 0.00 96 1012.7
20260507092701 44 36 0.0 0.0 0.00 0.00 0.00 96 1012.6
20260507092157 45 36 0.0 0.0 0.00 0.00 0.00 96 1012.6
20260507091653 45 36 0.0 0.0 0.00 0.00 0.00 96 1012.7
20260507091150 45 36 0.0 0.0 0.00 0.00 0.00 95 1012.6
20260507090645 45 36 0.0 0.0 0.00 0.00 0.00 94 1012.8
20260507090143 46 36 0.0 1.0 0.00 0.00 0.00 94 1012.5
20260507085639 45 36 0.0 1.0 0.00 0.00 0.00 93 1012.7
20260507085136 45 36 0.0 0.0 0.00 0.00 0.00 93 1012.6
20260507084633 45 36 0.0 0.0 0.00 0.00 0.00 93 1012.4
20260507084130 45 36 0.0 1.0 0.00 0.00 0.00 92 1012.5
20260507083627 45 35 0.0 0.0 0.00 0.00 0.00 90 1012.6
20260507083123 46 35 0.0 0.0 0.00 0.00 0.00 89 1012.7
20260507082619 47 36 0.0 0.0 0.00 0.00 0.00 89 1012.5
20260507082116 47 36 1.0 1.0 0.00 0.00 0.00 89 1012.5
20260507081613 47 36 0.0 1.0 0.00 0.00 0.00 87 1012.7
20260507081109 47 36 0.0 0.0 0.00 0.00 0.00 87 1012.6
20260507080606 48 36 0.0 0.0 0.00 0.00 0.00 86 1012.6
20260507075557 48 36 0.0 1.0 0.00 0.00 0.00 87 1012.9
20260507075054 48 35 0.0 0.0 0.00 0.00 0.00 87 1012.8
20260507074550 48 35 0.0 0.0 0.00 0.00 0.00 86 1012.8
20260507074049 48 36 0.0 0.0 0.00 0.00 0.00 85 1012.9
20260507073544 49 36 0.0 0.0 0.00 0.00 0.00 85 1012.9
20260507073041 49 36 0.0 0.0 0.00 0.00 0.00 84 1012.9
20260507072539 49 36 1.0 1.0 0.00 0.00 0.00 84 1012.8
20260507072036 49 36 1.0 1.0 0.00 0.00 0.00 84 1012.9
20260507071533 50 36 1.0 1.0 0.00 0.00 0.00 83 1012.7
20260507071030 50 36 0.0 0.0 0.00 0.00 0.00 82 1012.7
20260507070527 50 36 1.0 1.0 0.00 0.00 0.00 81 1012.8
20260507070024 50 36 1.0 1.0 0.00 0.00 0.00 81 1012.8
20260507065520 50 36 0.0 0.0 0.00 0.00 0.00 82 1012.8
20260507065017 50 36 0.0 1.0 0.00 0.00 0.00 81 1012.9
20260507064515 51 36 0.0 1.0 0.00 0.00 0.00 82 1012.9
20260507064014 51 36 0.0 1.0 0.00 0.00 0.00 81 1012.9
20260507063510 51 36 0.0 1.0 0.00 0.00 0.00 79 1012.7
20260507063008 51 36 1.0 1.0 0.00 0.00 0.00 77 1012.7
20260507062504 51 36 1.0 2.0 0.00 0.00 0.00 79 1012.6
20260507062002 51 35 1.0 1.0 0.00 0.00 0.00 78 1013.0
20260507061459 51 35 0.0 1.0 0.00 0.00 0.00 76 1012.9
20260507060957 51 35 1.0 1.0 0.00 0.00 0.00 76 1013.1
20260507060454 51 33 0.0 2.0 0.00 0.00 0.00 75 1013.1
20260507055950 51 26 1.0 1.0 0.00 0.00 0.00 77 1013.0
20260507055446 51 25 1.0 1.0 0.00 0.00 0.00 77 1013.1
20260507054943 51 25 0.0 1.0 0.00 0.00 0.00 77 1013.2
20260507054439 52 24 1.0 1.0 0.00 0.00 0.00 76 1013.1
20260507053936 52 34 1.0 1.0 0.00 0.00 0.00 77 1013.1
20260507053434 52 20 0.0 1.0 0.00 0.00 0.00 75 1013.4
20260507052932 52 7 0.0 1.0 0.00 0.00 0.00 74 1013.2
20260507052429 52 31 0.0 0.0 0.00 0.00 0.00 74 1013.3
20260507051926 52 10 0.0 1.0 0.00 0.00 0.00 74 1013.2
20260507051424 52 33 2.0 2.0 0.00 0.00 0.00 75 1013.3
20260507050921 52 4 1.0 1.0 0.00 0.00 0.00 73 1013.3
20260507050417 52 13 0.0 0.0 0.00 0.00 0.00 73 1013.2
20260507045914 52 339 2.0 2.0 0.00 0.00 0.00 74 1013.6
20260507045411 52 11 1.0 1.0 0.00 0.00 0.00 74 1013.4
20260507044908 53 329 0.0 1.0 0.00 0.00 0.00 75 1013.4
20260507044405 53 322 2.0 2.0 0.00 0.00 0.00 72 1013.4
20260507043901 53 343 1.0 2.0 0.00 0.00 0.00 70 1013.3
20260507043357 53 323 1.0 2.0 0.00 0.00 0.00 72 1013.4
20260507042853 53 295 1.0 3.0 0.00 0.00 0.00 71 1013.3
20260507042350 53 299 1.0 2.0 0.00 0.00 0.00 71 1013.3
20260507041846 53 354 0.0 1.0 0.00 0.00 0.00 72 1013.3
20260507041343 53 335 1.0 2.0 0.00 0.00 0.00 70 1013.2
20260507040840 53 309 2.0 2.0 0.00 0.00 0.00 68 1013.3
20260507040336 54 307 1.0 2.0 0.00 0.00 0.00 69 1013.2
20260507035832 54 327 2.0 6.0 0.00 0.68 0.68 68 1013.3
20260507035328 54 339 2.0 3.0 0.00 0.68 0.68 69 1013.1
20260507034826 54 35 0.0 3.0 0.00 0.68 0.68 69 1012.9
20260507034322 54 337 2.0 2.0 0.00 0.68 0.68 70 1013.0
20260507033820 54 338 0.0 1.0 0.00 0.68 0.68 73 1013.1
20260507033318 54 299 1.0 3.0 0.00 0.68 0.68 73 1013.2
20260507032815 54 348 0.0 1.0 0.00 0.68 0.68 74 1013.2
20260507032311 53 336 0.0 4.0 0.00 0.68 0.68 74 1013.3
20260507031808 54 348 0.0 1.0 0.00 0.68 0.68 77 1013.2
20260507031305 54 18 1.0 1.0 0.00 0.68 0.68 75 1013.3
20260507030801 54 6 1.0 2.0 0.00 0.68 0.68 76 1013.2
20260507030259 54 7 0.0 1.0 0.00 0.68 0.68 74 1013.2
20260507025755 54 8 1.0 3.0 0.00 0.68 0.68 75 1013.2
20260507025253 55 349 0.0 1.0 0.00 0.68 0.68 73 1013.3
20260507024751 55 319 1.0 3.0 0.00 0.68 0.68 73 1013.1
20260507024248 55 348 0.0 1.0 0.00 0.68 0.68 74 1013.1
20260507023743 55 329 1.0 3.0 0.00 0.68 0.68 73 1012.9
20260507023240 55 4 1.0 2.0 0.00 0.68 0.68 73 1013.2
20260507022738 55 11 0.0 2.0 0.00 0.68 0.68 75 1013.2
20260507022233 55 353 0.0 1.0 0.00 0.68 0.68 74 1013.3
20260507021730 55 355 2.0 2.0 0.00 0.68 0.68 75 1013.2
20260507021225 56 314 4.0 4.0 0.00 0.68 0.68 73 1012.9
20260507020724 56 334 2.0 4.0 0.00 0.68 0.68 71 1012.8
20260507020220 55 322 4.0 7.0 0.00 0.68 0.68 72 1012.6
20260507015718 55 341 3.0 7.0 0.00 0.68 0.68 76 1012.1
20260507015215 55 104 1.0 1.0 0.00 0.68 0.68 83 1012.4
20260507014711 55 37 0.0 0.0 0.00 0.68 0.68 84 1012.3
20260507014208 55 37 0.0 1.0 0.00 0.68 0.68 83 1012.2
20260507013704 55 37 1.0 1.0 0.00 0.68 0.68 85 1012.3
20260507013202 55 37 1.0 1.0 0.00 0.68 0.68 82 1011.8
20260507012659 56 37 1.0 1.0 0.00 0.68 0.68 83 1012.1
20260507012154 55 37 1.0 1.0 0.00 0.68 0.68 82 1011.9
20260507011653 55 37 0.0 2.0 0.00 0.68 0.68 82 1011.8
20260507011148 56 37 1.0 1.0 0.00 0.68 0.68 83 1011.6
20260507010643 56 36 1.0 1.0 0.00 0.68 0.68 82 1012.2
20260507010139 56 36 0.0 1.0 0.00 0.68 0.68 82 1011.9
20260507005637 56 36 0.0 1.0 0.00 0.68 0.68 82 1011.5
20260507005133 56 36 0.0 2.0 0.00 0.68 0.68 83 1011.5
20260507004630 56 36 0.0 0.0 0.00 0.68 0.68 80 1011.4
20260507004127 56 20 0.0 0.0 0.00 0.68 0.68 83 1011.4
20260507003624 56 17 0.0 1.0 0.00 0.68 0.68 90 1011.3
20260507003119 57 2 0.0 1.0 0.00 0.68 0.68 91 1011.5
20260507002615 56 55 1.0 1.0 0.00 0.68 0.68 90 1011.4
20260507002111 57 55 1.0 1.0 0.00 0.68 0.68 90 1011.1
20260507001608 57 56 0.0 0.0 0.00 0.68 0.68 90 1011.2
20260507001106 57 56 0.0 1.0 0.00 0.68 0.68 90 1010.9
20260507000602 57 56 0.0 1.0 0.00 0.68 0.68 89 1011.2
20260507000057 57 56 1.0 1.0 0.00 0.68 0.68 89 1011.1
20260506235556 57 56 0.0 0.0 0.00 0.68 0.68 88 1011.2
20260506235055 57 55 0.0 1.0 0.00 0.68 0.68 87 1011.2
20260506234553 58 56 0.0 1.0 0.00 0.68 0.68 87 1011.0
20260506234051 58 56 0.0 1.0 0.00 0.68 0.68 87 1010.9
20260506233548 58 55 0.0 1.0 0.00 0.68 0.68 85 1011.0
20260506233044 58 56 2.0 2.0 0.00 0.68 0.68 86 1010.5
20260506232540 58 56 1.0 1.0 0.00 0.68 0.68 85 1010.7
20260506232041 58 56 1.0 1.0 0.00 0.68 0.68 84 1010.6
20260506231538 58 55 1.0 2.0 0.00 0.68 0.68 83 1011.2
20260506231036 59 46 1.0 2.0 0.00 0.68 0.68 82 1011.3
20260506230532 59 45 0.0 0.0 0.00 0.68 0.68 81 1011.4
20260506230030 60 45 0.0 1.0 0.00 0.68 0.68 80 1011.3
20260506225527 60 45 0.0 0.0 0.00 0.68 0.68 80 1011.1
20260506225023 60 45 0.0 1.0 0.00 0.68 0.68 81 1011.2
20260506224520 60 52 0.0 1.0 0.00 0.68 0.68 80 1011.3
20260506224016 60 53 0.0 1.0 0.00 0.68 0.68 80 1011.4
20260506223512 60 10 0.0 0.0 0.00 0.68 0.68 78 1011.3
20260506223009 61 349 0.0 1.0 0.00 0.68 0.68 78 1011.4
20260506222506 61 2 1.0 1.0 0.00 0.68 0.68 77 1011.2
20260506222002 61 18 0.0 1.0 0.00 0.68 0.68 75 1011.3
20260506221459 61 338 0.0 0.0 0.00 0.68 0.68 73 1011.0
20260506220958 61 338 0.0 0.0 0.00 0.68 0.68 71 1011.0
20260506220453 61 338 0.0 1.0 0.00 0.68 0.68 72 1011.3
20260506215949 62 315 0.0 1.0 0.00 0.68 0.68 71 1011.5
20260506215446 62 355 1.0 1.0 0.00 0.68 0.68 71 1010.9
20260506214946 62 343 0.0 1.0 0.00 0.68 0.68 69 1010.8
20260506214444 62 337 1.0 4.0 0.00 0.68 0.68 69 1011.0
20260506213941 62 338 1.0 2.0 0.00 0.68 0.68 69 1010.9
20260506213439 63 246 1.0 2.0 0.00 0.68 0.68 66 1010.7
20260506212936 63 326 1.0 2.0 0.00 0.68 0.68 71 1010.9
20260506212432 62 340 0.0 6.0 0.00 0.68 0.68 69 1010.8
20260506211927 62 244 0.0 1.0 0.00 0.68 0.68 71 1011.0
20260506211423 62 333 0.0 1.0 0.00 0.68 0.68 71 1010.6
20260506210921 63 272 0.0 1.0 0.00 0.68 0.68 70 1010.9
20260506210417 63 299 0.0 2.0 0.00 0.68 0.68 70 1010.9
20260506205914 63 252 0.0 2.0 0.00 0.68 0.68 69 1011.0
20260506205410 63 338 1.0 2.0 0.00 0.68 0.68 69 1011.0
20260506204907 63 325 1.0 1.0 0.00 0.68 0.68 70 1010.9
20260506204404 63 300 0.0 2.0 0.00 0.68 0.68 69 1011.1
20260506203902 63 222 2.0 3.0 0.00 0.68 0.68 67 1011.0
20260506203359 63 342 1.0 2.0 0.00 0.68 0.68 70 1011.0
20260506202855 62 315 1.0 2.0 0.00 0.68 0.68 72 1010.9
20260506202353 62 258 1.0 2.0 0.00 0.68 0.68 70 1010.9
20260506201849 63 356 2.0 4.0 0.00 0.68 0.68 68 1010.8
20260506201347 63 319 3.0 4.0 0.00 0.68 0.68 69 1010.5
20260506200843 62 3 0.0 2.0 0.00 0.68 0.68 71 1010.7
20260506200339 62 356 2.0 3.0 0.00 0.68 0.68 73 1010.8
20260506195835 61 348 1.0 2.0 0.00 0.68 0.68 75 1010.8
20260506195333 60 39 2.0 7.0 0.00 0.68 0.68 74 1010.9
20260506194830 61 307 1.0 2.0 0.00 0.68 0.68 77 1010.6
20260506194326 61 326 2.0 2.0 0.00 0.68 0.68 76 1010.7
20260506193824 61 308 1.0 3.0 0.00 0.68 0.68 75 1010.7
20260506193321 60 351 0.0 2.0 0.00 0.68 0.68 77 1010.5
20260506192817 60 10 3.0 3.0 0.00 0.68 0.68 77 1010.8
20260506192314 60 316 1.0 3.0 0.00 0.68 0.68 76 1010.9
20260506191811 60 322 2.0 2.0 0.00 0.68 0.68 78 1010.9
20260506191307 60 322 0.0 3.0 0.00 0.68 0.68 81 1010.9
20260506190804 60 339 0.0 6.0 0.00 0.68 0.68 78 1011.0
20260506190301 60 270 1.0 2.0 0.00 0.68 0.68 79 1010.7
20260506185758 59 330 2.0 6.0 0.00 0.68 0.68 78 1010.8
20260506185254 60 313 2.0 2.0 0.00 0.68 0.68 79 1010.9
20260506184751 59 326 0.0 1.0 0.00 0.68 0.68 80 1010.6
20260506184249 60 307 1.0 3.0 0.00 0.68 0.68 78 1010.9
20260506183746 60 29 1.0 1.0 0.00 0.68 0.68 80 1010.5
20260506183246 59 3 0.0 2.0 0.00 0.68 0.68 80 1010.6
20260506182743 58 348 1.0 4.0 0.00 0.68 0.68 81 1010.7
20260506182241 59 296 1.0 3.0 0.00 0.68 0.68 80 1010.7
20260506181738 58 357 2.0 4.0 0.00 0.68 0.68 81 1010.7
20260506181236 58 331 1.0 3.0 0.00 0.68 0.68 81 1010.8
20260506180733 58 313 1.0 3.0 0.00 0.68 0.68 82 1011.0
20260506180233 57 325 1.0 2.0 0.00 0.68 0.68 84 1010.7
20260506175730 57 357 0.0 1.0 0.00 0.68 0.68 83 1010.9
20260506175227 58 17 2.0 6.0 0.00 0.68 0.68 83 1010.9
20260506174725 58 336 4.0 7.0 0.00 0.68 0.68 82 1011.0
20260506174221 58 299 2.0 3.0 0.00 0.68 0.68 84 1010.9
20260506173719 57 293 3.0 6.0 0.00 0.68 0.68 84 1010.8
20260506173216 57 339 4.0 6.0 0.00 0.68 0.68 86 1011.0
20260506172713 57 280 3.0 6.0 0.00 0.68 0.68 86 1011.2
20260506172209 56 359 2.0 6.0 0.00 0.68 0.68 87 1011.3
20260506171707 55 318 2.0 3.0 0.00 0.68 0.68 88 1011.2
20260506171204 55 0 4.0 6.0 0.00 0.68 0.68 89 1011.2
20260506170702 54 1 0.0 6.0 0.00 0.68 0.68 90 1011.1
20260506170158 54 337 3.0 6.0 0.00 0.68 0.68 91 1011.0
20260506165656 54 5 3.0 6.0 0.00 0.68 0.68 92 1010.7
20260506165153 54 342 2.0 4.0 0.00 0.68 0.68 92 1010.9
20260506164650 54 345 1.0 3.0 0.00 0.68 0.68 93 1010.9
20260506164148 53 286 2.0 7.0 0.00 0.68 0.68 94 1011.0
20260506163643 53 7 2.0 3.0 0.00 0.68 0.68 94 1011.0
20260506163139 53 310 7.0 9.0 0.00 0.68 0.68 93 1011.0
20260506162635 53 351 1.0 7.0 0.00 0.68 0.68 94 1011.3
20260506162133 53 312 4.0 7.0 0.00 0.68 0.68 94 1011.3
20260506161630 53 286 3.0 6.0 0.00 0.68 0.68 95 1011.1
20260506161126 53 334 2.0 6.0 0.00 0.68 0.68 95 1010.9
20260506160624 53 355 2.0 7.0 0.00 0.68 0.68 96 1011.2
20260506160121 53 327 2.0 6.0 0.00 0.68 0.68 96 1010.8
20260506155620 53 3 2.0 4.0 0.00 0.68 0.68 96 1010.9
20260506155116 52 334 3.0 4.0 0.00 0.68 0.68 97 1010.1
20260506153218 53 340 2.0 7.0 0.00 0.68 0.68 97 1010.0
20260506152715 52 14 2.0 3.0 0.00 0.68 0.68 97 1010.2
20260506152213 52 306 2.0 4.0 0.00 0.68 0.68 97 1010.1
20260506151712 52 337 5.0 7.0 0.00 0.68 0.68 97 1009.9
20260506151208 52 330 2.0 6.0 0.00 0.68 0.68 97 1009.5
20260506150704 52 351 2.0 4.0 0.00 0.68 0.68 97 1009.5
20260506150201 52 2 1.0 3.0 0.00 0.68 0.68 97 1009.6
20260506145658 52 333 6.0 7.0 0.00 0.68 0.68 97 1009.4
20260506145154 52 1 2.0 7.0 0.00 0.68 0.68 97 1009.4
20260506144653 52 328 3.0 6.0 0.00 0.68 0.68 97 1009.4
20260506144149 52 350 4.0 6.0 0.00 0.68 0.68 97 1009.4
20260506143646 52 14 3.0 7.0 0.00 0.68 0.68 98 1009.3
20260506143144 52 1 4.0 6.0 0.00 0.68 0.68 97 1009.2
20260506142643 53 339 4.0 9.0 0.00 0.68 0.68 97 1009.3
20260506142140 53 341 4.0 7.0 0.00 0.68 0.68 97 1009.2
20260506141638 53 321 8.0 10.0 0.00 0.68 0.68 97 1009.2
20260506141136 53 16 6.0 9.0 0.05 0.68 0.68 97 1009.1
20260506140633 54 14 6.0 13.0 0.05 0.68 0.68 97 1008.8
20260506140130 55 31 7.0 10.0 0.00 0.67 0.67 97 1008.6
20260506135627 57 306 10.0 16.0 0.07 0.67 0.67 97 1008.4
20260506135123 59 328 4.0 7.0 0.12 0.67 0.67 98 1008.1
20260506134620 60 317 2.0 3.0 0.05 0.66 0.66 98 1007.7
20260506134115 60 6 1.0 2.0 0.00 0.65 0.65 98 1007.3
20260506133613 60 327 0.0 2.0 0.00 0.65 0.65 98 1007.3
20260506133110 60 41 1.0 2.0 0.00 0.65 0.65 98 1007.3
20260506132608 60 252 0.0 1.0 0.00 0.65 0.65 98 1007.3
20260506132104 60 251 0.0 0.0 0.00 0.65 0.65 98 1007.2
20260506131602 60 251 0.0 1.0 0.00 0.65 0.65 98 1007.1
20260506131058 60 108 0.0 0.0 0.00 0.65 0.65 98 1007.0
20260506130555 59 123 1.0 3.0 0.00 0.65 0.65 98 1006.8
20260506130052 59 188 1.0 1.0 0.00 0.65 0.65 99 1007.1
20260506125550 59 189 0.0 2.0 0.00 0.65 0.65 99 1006.8
20260506125048 59 209 1.0 2.0 0.00 0.65 0.65 99 1006.8